Location: Caltech
(34.1382°N, 118.1253°W)
Time: 15:32:23
(UTC-07:00)

Cosmos 1939 Rocket - Visible Passes

Search period start: 30 August 2015 00:00
Search period end: 09 September 2015 00:00
Orbit: 532 x 592 km, 97.6° (Epoch: 29 August)

Date Brightness Start Highest point End Pass type
(mag) Time Alt. Az. Time Alt. Az. Time Alt. Az.
30 Aug 4.2 20:54:25 24° NE 20:54:25 24° NE 20:56:48 10° NNE visible
30 Aug 5.9 22:30:23 12° WNW 22:30:23 12° WNW 22:30:59 10° NW visible
31 Aug 4.2 20:54:05 23° NE 20:54:05 23° NE 20:56:20 10° NNE visible
31 Aug 5.9 22:30:03 12° WNW 22:30:03 12° WNW 22:30:33 10° NW visible
01 Sep 4.3 20:53:44 22° NE 20:53:44 22° NE 20:55:52 10° NNE visible
01 Sep 6.0 22:29:43 12° WNW 22:29:43 12° WNW 22:30:08 10° NW visible
02 Sep 4.4 20:53:24 21° NE 20:53:24 21° NE 20:55:24 10° NNE visible
02 Sep 6.0 22:29:23 11° WNW 22:29:23 11° WNW 22:29:42 10° NW visible
03 Sep 4.5 20:53:04 20° NE 20:53:04 20° NE 20:54:55 10° NNE visible
03 Sep 6.1 22:29:02 11° NW 22:29:02 11° NW 22:29:15 10° NW visible
04 Sep 4.5 20:52:43 20° NE 20:52:43 20° NE 20:54:26 10° NNE visible
04 Sep 6.1 22:28:42 11° NW 22:28:42 11° NW 22:28:49 10° NW visible
05 Sep 4.6 20:52:22 19° NE 20:52:22 19° NE 20:53:57 10° NNE visible
05 Sep 6.1 22:28:21 10° NW 22:28:21 10° NW 22:28:23 10° NW visible
06 Sep 4.7 20:52:01 18° NE 20:52:01 18° NE 20:53:28 10° NNE visible
07 Sep 4.8 20:51:40 17° NNE 20:51:40 17° NNE 20:52:59 10° NNE visible
08 Sep 4.8 20:51:19 16° NNE 20:51:19 16° NNE 20:52:31 10° NNE visible
